CAPE
23 20 22 16 14 13 10 16 25 25 19 19 22 18 19 10 12 12 16 6 3 0 0 0 1 3 0 0 0 0 0 0 0 0 0 0 0 0 0 0 0 0 0 0 0 0 0
13 17 15 37 19 24 22 26 22 27 35 36 36 21 22 17 15 3 2 0 0 0 0 0 1 3 0 0 0 0 0 0 0 0 0 0 0 0 0 0 0 0 0 0 0 0 0
27 29 26 34 30 30 9 15 22 21 21 19 30 34 21 13 11 8 0 0 0 0 0 0 1 0 0 0 0 0 0 0 0 0 0 0 0 0 0 0 0 0 0 0 0 0 0
20 26 30 31 34 33 28 13 16 19 13 26 19 35 50 39 17 11 0 0 0 0 0 0 0 0 0 0 0 0 0 0 0 0 0 0 0 0 0 0 0 0 0 0 0 0 0
22 22 30 34 35 53 35 19 16 20 18 14 18 42 50 41 20 0 0 0 0 0 0 0 0 0 0 0 0 0 0 0 0 0 0 0 0 0 0 0 0 0 0 0 0 0 0
23 32 33 32 32 33 40 46 40 40 25 23 21 30 41 32 20 0 0 0 0 0 0 0 0 0 0 0 0 0 0 0 0 0 0 0 0 0 0 0 0 0 0 0 0 0 0
22 29 35 30 26 26 26 38 38 50 35 19 22 22 21 30 15 0 0 0 0 0 5 0 0 0 0 0 0 0 0 0 0 0 0 0 0 0 0 0 0 0 0 0 0 0 0
32 25 29 45 43 38 35 25 55 55 38 9 11 15 21 21 0 0 0 2 0 0 0 0 0 0 0 0 0 0 0 0 0 0 0 0 0 0 0 0 0 0 0 0 0 0 0
40 37 43 36 42 40 47 53 67 58 38 21 17 35 18 23 0 0 5 3 0 10 0 0 0 0 0 0 0 0 0 0 0 0 0 3 0 0 0 0 0 1 1 0 0 0 0
30 27 24 23 31 43 53 44 45 49 47 40 29 31 36 17 0 5 7 8 7 21 5 0 0 0 0 0 0 0 0 0 0 0 0 9 4 0 0 0 0 14 2 0 1 2 7
12 36 37 47 40 32 44 49 35 47 47 46 37 26 26 13 1 0 3 0 16 26 4 0 0 0 0 0 0 0 0 0 0 0 0 0 0 0 0 1 0 1 0 2 0 5 6
12 23 38 45 46 32 38 50 55 45 44 64 50 34 13 0 8 0 4 18 31 16 1 0 0 0 0 0 0 0 0 0 0 0 3 1 1 0 0 1 6 0 5 2 0 11 12
21 45 33 31 45 25 6 24 48 55 46 53 62 48 12 1 1 11 44 13 41 4 0 0 0 0 0 0 0 0 0 0 0 0 0 0 1 0 10 2 0 3 1 0 3 14 6
24 35 40 34 44 40 24 29 55 19 40 42 67 53 4 0 0 16 38 58 18 0 0 0 0 0 0 0 0 0 0 0 0 0 0 0 0 0 0 0 0 0 0 7 7 26 0
39 44 39 38 52 50 49 37 57 36 12 58 56 16 15 0 25 56 76 23 0 0 0 0 0 0 0 0 0 21 16 12 14 0 0 0 0 0 0 0 0 0 14 0 0 0 4
41 55 57 57 60 66 49 44 49 65 67 68 17 47 40 33 96 95 63 11 0 0 0 0 0 0 0 1 0 0 4 31 69 6 0 0 0 4 0 0 0 2 5 4 0 3 20
40 59 73 67 62 62 67 62 42 49 86 2 24 35 0 49 159 90 26 15 0 0 0 0 0 0 1 0 0 0 74 29 0 0 0 10 0 0 0 0 14 5 2 0 5 1 2
41 57 74 86 72 52 81 65 51 53 66 16 39 36 135 115 71 41 53 15 2 0 1 0 0 0 0 6 17 1 6 29 0 0 0 10 3 0 0 1 0 12 2 3 5 28 28
50 54 61 75 93 93 73 79 70 66 23 55 51 22 4 179 46 68 25 11 1 16 0 1 3 1 3 9 4 16 4 9 0 0 0 0 0 2 18 14 8 0 0 0 9 12 7
38 30 50 64 82 73 60 62 79 79 42 81 104 65 7 165 49 45 34 23 23 13 9 4 6 6 11 12 8 14 30 16 0 0 0 0 0 9 62 19 0 14 6 0 26 15 20
48 41 43 46 66 78 68 70 70 58 3 90 80 45 20 75 56 29 26 30 42 21 16 15 14 15 17 27 23 27 34 33 20 3 0 1 0 1 0 7 8 2 19 2 3 0 4
35 55 53 37 50 54 58 67 95 75 57 76 98 33 14 9 18 42 40 38 22 32 33 37 44 34 35 37 49 42 35 27 49 21 3 0 14 0 0 0 0 5 0 2 14 23 0
25 45 75 59 56 43 43 67 78 100 96 87 44 29 27 21 8 27 51 32 24 17 5 6 20 60 55 39 69 63 72 53 33 47 33 26 5 2 0 0 0 1 0 0 0 12 13
21 34 43 56 47 47 39 45 72 80 103 64 24 23 78 32 25 41 27 38 38 41 25 15 43 43 89 78 119 138 134 101 54 57 28 8 5 25 24 18 7 0 0 1 2 5 12
42 37 45 45 66 67 42 52 59 66 90 117 69 137 75 55 41 35 25 16 38 49 35 44 21 20 0 135 100 54 71 72 30 5 4 35 11 34 52 23 5 0 1 0 0 0 0
71 41 40 66 57 52 55 56 46 53 76 84 101 162 114 143 17 36 42 29 22 35 36 41 33 24 22 124 93 44 50 28 33 4 1 29 83 61 53 9 5 0 0 23 10 1 40
61 45 47 62 53 50 52 64 50 64 51 85 22 146 99 46 2 46 54 48 47 52 53 94 26 86 119 94 54 51 64 67 59 52 21 40 56 39 46 27 26 5 22 15 51 86 10
52 59 66 61 55 54 59 51 50 61 58 58 36 118 81 63 7 21 46 15 63 74 122 93 86 67 49 33 38 42 125 109 42 33 35 26 41 45 49 28 26 17 6 11 104 42 17
39 51 54 43 42 42 41 42 51 23 15 47 66 75 111 60 6 17 31 29 26 36 51 20 18 18 75 67 85 149 183 307 106 70 103 70 30 39 7 7 56 167 154 55 23 13 6
CIN
-0 -0 -0 -1 -3 -3 -1 -0 -1 -4 -5 -7 -4 -3 -1 -0 -0 -0 -0 -0 -0 -0 -0 -0 -0 -0 -0 -0 -0 -0 -0 -0 -0 -0 -0 -0 -0 -0 -0 -0 -0 -0 -0 -0 -0 -0 -0
-0 -0 -0 -0 -0 -2 -2 -4 -3 -3 -2 -4 -2 -3 -0 -0 -0 -0 -0 -0 -0 -0 -0 -0 -0 -0 -0 -0 -0 -0 -0 -0 -0 -0 -0 -0 -0 -0 -0 -0 -0 -0 -0 -0 -0 -0 -0
-0 -0 -0 -0 -2 -1 -4 -5 -8 -5 -5 -4 -1 -0 -1 -0 -0 -0 -0 -0 -0 -0 -0 -0 -0 -0 -0 -0 -0 -0 -0 -0 -0 -0 -0 -0 -0 -0 -0 -0 -0 -0 -0 -0 -0 -0 -0
-0 -0 -0 -0 -0 -1 -2 -5 -5 -4 -2 -2 -2 -1 -0 -0 -0 -0 -0 -0 -0 -0 -0 -0 -0 -0 -0 -0 -0 -0 -0 -0 -0 -0 -0 -0 -0 -0 -0 -0 -0 -0 -0 -0 -0 -0 -0
-0 -0 -0 -0 -0 -1 -0 -1 -5 -4 -2 -3 -2 -0 -0 -0 -0 -0 -0 -0 -0 -0 -0 -0 -0 -0 -0 -0 -0 -0 -0 -0 -0 -0 -0 -0 -0 -0 -0 -0 -0 -0 -0 -0 -0 -0 -0
-0 -0 -0 -0 -0 -0 -0 -0 -0 -2 -3 -3 -0 -0 -0 -0 -0 -0 -0 -0 -0 -0 -0 -0 -0 -0 -0 -0 -0 -0 -0 -0 -0 -0 -0 -0 -0 -0 -0 -0 -0 -0 -0 -0 -0 -0 -0
-0 -0 -0 -0 -0 -0 -0 -0 -0 -0 -2 -3 -1 -1 -0 -0 -0 -0 -0 -0 -0 -0 -0 -0 -0 -0 -0 -0 -0 -0 -0 -0 -0 -0 -0 -0 -0 -0 -0 -0 -0 -0 -0 -0 -0 -0 -0
-0 -0 -0 -0 -0 -0 -0 -0 -0 -0 -2 -6 -4 -5 -0 -0 -0 -0 -0 -1 -0 -0 -0 -0 -0 -0 -0 -0 -0 -0 -0 -0 -0 -0 -0 -0 -0 -0 -0 -0 -0 -0 -0 -0 -0 -0 -0
-0 -0 -0 -0 -0 -0 -0 -0 -0 -0 -0 -2 -3 -1 -3 -0 -0 -0 -6 -0 -0 -0 -0 -0 -0 -0 -0 -0 -0 -0 -0 -0 -0 -0 -0 -0 -0 -0 -0 -0 -0 -0 -0 -0 -0 -0 -0
-0 -0 -0 -0 -0 -0 -0 -0 -0 -1 -0 -1 -3 -3 -0 -1 -0 -0 -1 -0 -0 -5 -0 -0 -0 -0 -0 -0 -0 -0 -0 -0 -0 -0 -0 -1 -1 -0 -0 -0 -0 -0 -1 -0 -3 -4 -0
-0 -0 -0 -0 -0 -0 -0 -0 -2 -3 -0 -0 -3 -5 -2 -3 -0 -0 -4 -0 -0 -0 -0 -0 -0 -0 -0 -0 -0 -0 -0 -0 -0 -0 -0 -0 -0 -0 -0 -0 -0 -0 -0 -0 -0 -0 -0
-0 -0 -0 -0 -0 -0 -0 -0 -0 -0 -1 -0 -2 -7 -7 -0 -1 -0 -10 -0 -0 -0 -0 -0 -0 -0 -0 -0 -0 -0 -0 -0 -0 -0 -0 -0 -5 -0 -0 -8 -1 -0 -0 -1 -0 -0 -0
-0 -0 -0 -0 -4 -6 -10 -3 -0 -1 -1 -1 -0 -2 -8 -0 -0 -13 -5 -0 -0 -0 -0 -0 -0 -0 -0 -0 -0 -0 -0 -0 -0 -0 -0 -0 -0 -0 -22 -0 -0 -1 -0 -0 -0 -0 -0
-0 -0 -0 -0 -0 -0 -0 -1 -1 -2 -2 -0 -0 -4 -3 -0 -0 -5 -2 -0 -0 -0 -0 -0 -0 -0 -0 -0 -0 -0 -0 -0 -0 -0 -0 -0 -0 -0 -0 -0 -0 -0 -0 -0 -1 -0 -0
-0 -0 -0 -0 -0 -0 -0 -0 -0 -1 -2 -1 -1 -0 -0 -0 -1 -1 -0 -0 -0 -0 -0 -0 -0 -0 -0 -0 -0 -0 -0 -0 -29 -0 -0 -0 -0 -0 -0 -0 -0 -0 -0 -0 -0 -0 -0
-0 -0 -0 -0 -0 -1 -1 -3 -1 -2 -0 -1 -0 -0 -0 -2 -5 -1 -0 -0 -0 -0 -0 -0 -0 -0 -0 -1 -0 -0 -0 -3 -33 -6 -0 -0 -0 -3 -0 -0 -0 -2 -3 -0 -0 -0 -0
-0 -0 -0 -0 -0 -0 -1 -0 -0 -5 -2 -3 -0 -0 -0 -5 -1 -0 -0 -0 -0 -0 -0 -0 -0 -0 -1 -0 -1 -0 -5 -21 -21 -0 -0 -1 -0 -3 -0 -0 -0 -1 -0 -0 -1 -0 -0
-0 -0 -0 -0 -3 -3 -3 -0 -1 -3 -1 -17 -0 -0 -2 -3 -0 -0 -0 -0 -7 -0 -1 -0 -0 -0 -2 -1 -1 -0 -1 -1 -0 -0 -1 -11 -2 -0 -0 -3 -0 -0 -0 -0 -0 -0 -0
-0 -0 -0 -0 -0 -1 -1 -3 -2 -2 -17 -0 -0 -0 -2 -0 -0 -0 -0 -0 -8 -0 -0 -0 -0 -0 -0 -0 -0 -0 -1 -7 -0 -0 -0 -0 -0 -0 -11 -5 -6 -0 -0 -1 -0 -0 -0
-0 -0 -0 -0 -0 -0 -1 -2 -2 -1 -8 -0 -0 -0 -0 -0 -0 -0 -0 -0 -0 -0 -0 -1 -0 -0 -0 -0 -0 -2 -1 -2 -0 -0 -0 -0 -0 -3 -0 -0 -0 -1 -0 -1 -0 -0 -0
-0 -0 -0 -0 -0 -0 -0 -0 -2 -0 -16 -1 -0 -0 -0 -0 -0 -0 -0 -0 -0 -1 -0 -0 -0 -0 -1 -1 -1 -1 -0 -0 -2 -0 -0 -3 -0 -1 -0 -5 -9 -7 -13 -2 -0 -0 -3
-0 -0 -0 -0 -0 -0 -0 -0 -0 -0 -5 -0 -0 -0 -0 -0 -0 -0 -1 -0 -0 -0 -1 -0 -0 -0 -0 -0 -0 -4 -1 -3 -2 -3 -3 -0 -0 -0 -0 -0 -0 -0 -0 -1 -4 -4 -0
-0 -0 -0 -0 -0 -0 -0 -0 -0 -0 -1 -0 -0 -0 -2 -1 -0 -0 -0 -0 -0 -1 -0 -21 -11 -3 -0 -0 -29 -47 -15 -9 -14 -1 -1 -0 -0 -0 -0 -0 -0 -0 -0 -20 -57 -12 -20
-0 -0 -0 -0 -0 -0 -0 -0 -0 -0 -0 -0 -0 -2 -0 -0 -0 -0 -0 -0 -0 -1 -1 -0 -0 -16 -28 -16 -7 -12 -7 -0 -17 -1 -0 -3 -0 -0 -0 -8 -1 -0 -0 -11 -32 -48 -24
-0 -0 -0 -0 -0 -0 -0 -2 -0 -0 -0 -0 -0 -0 -0 -0 -0 -0 -0 -1 -2 -0 -0 -0 -6 -0 -17 -0 -1 -0 -2 -0 -1 -0 -9 -0 -0 -0 -0 -0 -1 -1 -3 -0 -0 -0 -0
-0 -0 -0 -0 -0 -0 -0 -1 -25 -0 -0 -0 -0 -0 -0 -0 -0 -0 -1 -1 -0 -0 -0 -0 -15 -26 -26 -0 -1 -1 -0 -0 -0 -1 -2 -0 -0 -0 -0 -0 -1 -0 -0 -9 -4 -0 -14
-0 -0 -0 -0 -0 -0 -0 -0 -2 -0 -0 -0 -0 -0 -1 -0 -0 -0 -0 -1 -1 -1 -0 -9 -4 -8 -0 -0 -0 -0 -0 -1 -1 -1 -1 -1 -1 -0 -0 -0 -1 -0 -23 -24 -1 -6 -26
-0 -0 -0 -0 -0 -0 -0 -0 -2 -3 -0 -0 -0 -0 -0 -0 -0 -0 -0 -2 -0 -0 -0 -1 -4 -0 -7 -2 -7 -1 -0 -2 -6 -8 -5 -3 -1 -0 -0 -0 -0 -17 -30 -26 -15 -23 -4
-0 -0 -0 -0 -0 -0 -0 -0 -0 -0 -0 -0 -0 -0 -0 -0 -0 -0 -1 -0 -0 -0 -1 -0 -9 -2 -4 -4 -1 -0 -1 -1 -3 -1 -3 -3 -5 -4 -17 -26 -8 -8 -28 -14 -7 -0 -1
Wind_Speed
11 11 12 11 10 9 10 11 11 10 10 11 13 13 13 15 17 17 16 16 18 19 19 18 18 18 10 8 20 18 8 8 8 9 13 16 19 19 22 20 21 24 23 21 23 22 17
12 12 11 12 11 10 10 10 12 11 11 12 13 14 15 16 17 18 17 17 18 18 19 18 16 14 7 17 15 17 11 6 10 11 14 16 16 18 19 21 22 23 22 23 24 20 20
12 13 13 11 11 10 9 8 9 11 13 13 14 15 15 16 17 18 19 20 20 19 19 18 15 7 11 27 16 22 19 10 14 13 15 13 16 19 16 20 21 19 22 23 21 18 19
12 13 13 13 12 11 10 8 9 12 12 15 14 16 15 15 16 18 21 22 23 22 20 18 8 9 12 12 12 16 15 16 15 15 14 14 14 16 19 16 21 20 18 19 22 23 23
13 14 13 14 14 15 12 11 11 12 14 13 15 16 14 15 17 19 23 25 26 24 19 10 8 10 11 4 9 7 11 14 14 15 16 14 13 14 15 16 16 16 18 24 22 23 22
13 14 14 15 15 15 16 15 12 12 12 13 14 16 15 17 18 21 24 31 26 11 8 11 12 9 9 9 3 6 7 6 10 13 13 13 9 15 16 15 17 20 21 22 22 22 20
13 14 16 16 16 17 17 17 13 12 12 12 13 15 16 17 18 22 19 15 3 7 14 15 7 14 16 13 17 8 7 4 7 10 16 16 15 21 21 22 24 22 20 25 23 20 20
14 14 15 15 16 17 18 18 15 11 11 10 14 14 16 17 20 22 16 9 6 5 14 20 26 25 23 20 13 15 9 9 11 13 13 14 21 19 22 23 26 26 25 26 26 21 6
15 14 13 14 16 18 19 18 16 13 11 10 13 13 16 17 19 15 10 6 6 11 8 15 15 14 10 7 13 16 16 16 16 16 16 16 16 16 18 24 25 25 21 21 26 22 18
15 15 16 17 17 18 17 15 15 14 12 9 11 11 13 16 12 11 8 4 10 9 7 10 10 6 7 4 4 3 11 16 19 22 16 14 12 15 13 22 24 25 22 26 22 17 14
14 15 16 16 16 15 16 16 15 14 15 12 10 10 12 10 12 10 12 11 8 1 7 11 9 8 4 6 7 10 1 12 20 18 14 13 11 15 16 21 26 26 21 18 22 20 18
17 18 17 16 15 15 17 17 16 13 14 14 12 9 11 11 7 14 15 12 6 5 8 8 8 9 9 13 10 5 1 8 9 20 15 18 10 8 12 21 21 25 23 16 25 17 17
18 17 15 14 13 14 13 17 16 15 15 13 12 10 8 10 10 7 7 6 6 9 4 11 5 2 5 9 6 10 9 8 9 9 17 17 18 10 12 17 22 25 13 4 7 14 12
16 16 16 18 16 17 17 16 16 10 15 14 13 10 10 11 12 9 6 6 11 9 8 7 1 5 9 4 7 10 8 9 15 16 10 12 14 20 13 19 17 17 16 6 7 7 13
18 18 17 18 19 17 17 16 16 11 12 15 11 10 11 11 13 7 5 10 6 13 10 7 3 11 12 8 4 6 10 14 4 17 9 6 15 11 11 17 17 12 16 22 18 9 7
19 19 18 18 19 17 16 14 14 13 14 10 8 9 11 11 11 7 7 11 12 13 6 3 7 8 9 2 2 12 11 8 5 5 14 7 12 8 14 16 21 23 12 11 3 5 7
18 19 19 19 19 18 18 16 14 12 10 5 8 6 10 14 8 6 10 15 16 20 10 4 9 14 7 10 2 13 4 6 8 10 13 12 12 7 1 11 16 15 16 5 4 9 4
18 18 20 20 18 16 16 15 15 10 8 8 8 4 3 10 7 3 6 16 17 16 12 13 11 13 13 12 8 8 9 5 2 7 10 10 5 10 14 13 15 19 18 19 7 5 7
19 19 19 19 19 16 15 16 13 11 10 6 5 9 8 6 8 10 9 15 21 18 17 17 11 15 15 13 14 9 13 8 4 6 7 10 5 8 5 8 12 11 15 15 14 11 5
19 19 18 18 19 18 17 16 14 11 11 10 4 4 8 7 8 12 13 18 19 19 19 18 17 16 15 16 15 14 10 4 2 5 2 3 8 11 10 3 3 10 14 14 13 13 9
20 20 19 19 19 19 18 18 15 13 10 7 5 6 3 7 11 13 16 8 13 17 17 15 16 20 16 15 16 17 18 18 14 6 5 7 8 11 13 10 11 5 12 11 13 14 9
22 20 20 23 24 23 21 20 18 16 18 7 3 5 10 10 13 14 17 18 18 17 13 16 17 16 16 18 17 15 20 9 9 4 7 10 9 10 14 10 10 17 11 13 12 19 9
22 23 23 25 24 18 21 23 22 19 17 5 6 13 3 8 14 11 10 15 20 17 15 13 12 17 16 18 4 15 8 5 12 13 7 11 5 8 12 8 13 10 11 11 10 9 9
24 25 26 24 23 22 20 25 25 23 21 9 7 8 7 11 11 12 15 16 13 13 17 14 12 5 6 22 5 8 12 12 10 17 12 12 12 9 8 8 7 10 10 4 8 14 15
24 26 24 23 21 19 18 16 25 24 24 12 10 7 5 9 13 15 17 14 10 13 12 14 11 6 4 21 4 5 9 13 18 19 17 15 12 7 8 7 12 15 6 3 7 8 11
25 24 23 21 19 18 17 16 22 25 25 14 11 8 5 4 12 18 16 16 12 11 10 12 3 3 3 3 2 4 7 11 9 8 22 17 13 10 5 7 6 7 15 3 5 7 11
24 23 22 20 19 18 18 17 20 25 30 15 8 14 6 6 13 13 11 10 13 10 6 2 2 2 1 1 2 5 11 13 10 10 13 14 11 13 10 7 5 6 11 8 11 5 8
23 23 22 22 21 22 21 19 18 20 31 19 10 10 11 3 13 18 17 15 12 8 6 2 1 2 3 5 4 6 7 7 8 7 9 12 9 7 8 6 13 6 7 9 11 10 9
24 23 22 23 21 20 19 17 18 20 25 24 7 9 7 6 7 8 18 22 17 14 2 3 2 2 2 4 4 4 5 3 8 6 15 5 8 7 9 7 8 7 13 8 8 8 11
Wind_Direction
319 310 304 301 307 311 317 317 318 326 330 332 330 326 325 322 318 314 310 305 301 302 304 308 317 327 334 260 249 277 165 161 178 201 224 222 238 234 242 241 251 248 248 257 264 262 263
320 320 330 325 296 305 320 331 326 319 323 332 331 329 326 322 315 312 308 301 295 295 298 303 309 321 261 256 270 270 213 257 248 210 226 236 247 239 251 253 251 259 253 254 261 262 266
318 316 314 313 328 307 310 322 328 324 320 318 320 320 319 320 314 310 307 300 294 292 292 296 299 267 259 249 293 314 305 249 286 254 235 241 249 254 249 255 265 273 276 274 264 250 258
320 324 314 309 311 304 298 302 306 308 309 315 323 319 316 314 310 307 303 297 296 292 293 293 274 241 257 272 287 298 290 255 266 277 282 284 282 276 267 282 282 257 255 262 253 253 250
314 310 311 315 315 308 296 293 297 302 306 316 317 320 318 316 314 309 303 299 293 289 284 266 224 213 253 269 229 246 230 253 263 245 249 260 256 254 256 248 256 255 257 255 252 243 248
310 311 315 313 314 313 316 294 294 298 303 312 317 322 323 318 317 308 307 297 277 283 233 215 251 223 247 236 41 324 290 302 245 244 233 235 238 243 233 236 231 236 243 247 255 270 234
303 310 308 302 304 304 306 310 288 300 302 312 322 330 322 317 316 306 319 307 183 178 236 247 236 235 289 298 311 252 263 240 242 229 224 215 229 230 233 235 245 259 267 276 273 238 244
299 302 304 304 306 305 303 296 297 293 299 306 313 321 318 317 309 308 299 301 42 316 295 269 259 263 272 271 269 270 277 240 216 232 227 229 234 239 253 257 249 245 251 257 274 278 245
307 306 306 303 304 302 301 297 297 291 296 298 311 317 318 317 311 295 264 347 317 354 274 287 239 227 240 212 244 249 237 244 239 223 243 232 253 245 264 279 261 254 241 251 259 267 271
306 302 299 298 300 301 298 302 302 296 292 295 301 319 317 323 292 314 297 312 351 60 280 188 186 170 176 214 240 213 231 229 238 243 239 234 261 255 242 265 274 270 253 258 261 260 263
307 303 304 297 294 297 298 297 296 296 294 287 287 310 310 309 306 298 333 339 321 318 276 159 134 110 162 230 353 128 2 218 237 232 236 226 225 245 225 249 260 266 266 282 269 257 261
309 303 302 306 309 312 306 300 289 290 286 280 283 293 306 286 249 267 297 320 298 237 240 149 136 176 192 207 214 123 216 234 244 251 243 239 206 224 226 263 278 281 249 262 267 264 249
307 297 293 296 296 296 306 305 295 303 275 276 282 281 278 283 274 326 324 300 232 242 151 147 157 191 241 268 241 193 182 188 220 216 238 250 236 202 205 263 288 274 221 251 235 231 245
299 295 293 297 289 285 286 270 288 298 316 289 280 273 267 260 255 274 279 252 243 286 244 121 359 278 260 288 263 207 221 205 211 238 264 242 248 230 221 216 247 289 184 216 210 244 230
292 291 289 293 289 284 285 292 289 267 263 278 275 262 250 243 249 241 226 226 218 238 300 324 309 271 262 186 247 235 210 251 228 200 214 261 236 176 220 218 246 263 256 214 272 295 281
295 289 290 290 288 283 282 280 285 285 271 268 272 274 256 232 212 219 230 233 253 277 328 337 271 308 289 221 192 265 251 37 29 231 214 265 274 216 214 229 212 227 264 233 201 242 235
289 289 287 287 286 289 278 278 278 284 272 254 266 267 252 197 173 210 223 222 243 284 302 242 264 283 278 296 278 296 53 82 337 334 311 237 245 280 8 206 228 217 230 208 224 254 292
293 287 283 283 281 278 282 275 273 264 261 245 258 248 93 157 197 196 225 231 260 275 276 242 265 282 298 302 301 269 294 135 79 321 324 4 257 259 252 229 210 231 220 210 218 227 254
288 286 283 283 283 281 275 278 260 256 225 258 256 247 258 196 217 222 227 239 256 263 251 270 249 250 269 273 279 267 268 90 69 338 14 350 290 261 251 291 223 224 230 243 229 238 199
289 292 289 282 279 274 267 259 256 239 207 252 274 242 233 200 228 260 240 234 241 234 258 274 258 265 254 256 255 270 264 230 167 322 41 339 277 292 296 249 260 257 218 249 264 228 237
292 288 282 284 281 272 262 253 245 232 203 225 237 251 269 212 225 233 255 253 253 242 229 244 258 258 256 262 265 255 259 263 246 209 233 208 272 283 308 323 305 174 301 243 211 235 220
292 288 286 285 278 270 258 245 238 222 212 223 222 236 269 244 256 253 222 244 247 262 255 236 239 254 242 254 246 261 286 301 302 225 253 263 259 289 286 308 291 283 227 260 189 221 253
287 286 288 286 280 268 256 244 230 220 207 216 218 272 279 280 256 234 249 250 234 252 270 241 263 275 250 262 333 321 344 258 284 293 275 286 268 267 269 276 291 282 267 268 276 277 282
286 287 289 284 281 274 254 239 225 214 207 210 213 230 245 262 263 266 258 239 256 255 251 281 282 291 285 319 198 267 258 240 210 265 260 269 276 267 271 281 251 251 241 250 249 240 251
287 288 284 283 279 273 271 244 217 211 207 218 223 225 234 251 255 261 261 251 267 271 250 263 279 289 4 283 253 247 239 251 247 235 237 232 240 274 235 232 266 284 165 274 251 258 236
288 284 283 281 275 270 266 243 219 210 212 213 222 225 223 266 244 256 259 278 248 253 271 272 240 171 208 264 28 246 250 221 211 223 213 215 219 230 254 237 248 257 270 44 318 237 51
283 282 278 276 275 267 265 251 221 214 205 206 218 220 210 249 260 276 262 268 281 280 241 278 351 148 220 257 259 265 257 264 243 228 180 194 206 219 232 250 271 288 29 339 221 95 72
280 277 272 269 264 259 255 246 226 224 200 192 207 200 203 246 263 269 273 266 288 272 272 161 133 109 95 200 233 249 263 257 244 212 191 178 187 201 229 246 246 260 150 254 77 24 65
276 274 274 270 264 256 247 231 200 187 178 188 208 199 194 224 276 282 260 262 263 269 300 255 152 49 146 234 228 279 255 296 273 273 152 204 214 191 194 206 252 108 104 95 76 82 62